www.pogodaiklimat.ru

Погода и климат >> Архив погоды >> Монголия >> Баянхонгор


ПОГОДА в Баянхонгоре

  • Прогноз погоды в Баянхонгоре
  • Монитор погоды в Баянхонгоре

АРХИВ ПОГОДЫ в Баянхонгоре

Время (UTC), дата Ветер
(напр.,м/с)
 
Видим.   Явления Облачность Т
(С)
Тd
(С)
f
(%)
Тe
(С)
Тes
(С)
Комфортность P
(гПа)
Po
(гПа)
Тmin
(С)
Tmax
(С)
R
(мм)
R24
(мм)
S
(см)
03 9.06 СЗ 5 50 км 9/9 600 м
[Sc]
+17.6 +6.2 47 +17 +18 1008.8 811.0
06 9.06 В 4 20 км слаб. дождь 10/0 600 м
[As op]
+14.9 +10.1 73 +14 +16 1010.2 810.5
09 9.06 ЮВ 3 50 км гроза без осадков 10/10 600 м
[Cb cap]
+19.4 +5.5 40 +20 +20 1005.7 809.6
12 9.06 СВ 4
{18}
50 км {гроза, ливн. осадки} 9/9 600 м
[Cb cap]
+14.3 +8.0 66 +13 +13 1010.4 810.3 +19.4 2
15 9.06 В 1 н/о 8/8 600 м
[Sc]
+12.7 +8.8 77 +13 +13 1012.3 810.7
18 9.06 СВ 5 н/о 9/9 600 м
[Sc]
+13.0 +7.7 70 +11 +11 1010.8 809.9
21 9.06 СВ 3 н/о 8/8 600 м
[Sc]
+11.9 +7.2 73 +10 +10 1010.5 808.8
00 10.06 СВ 2 20 км слаб. дождь 10/10 600 м
[Sc]
+12.6 +8.5 76 +12 +12 1009.5 808.4 +11.4 0.0
03 10.06 В 1 50 км в посл. час дождь 9/5 600 м
[Sc Ac trans Ci fib]
+14.9 +7.7 62 +16 +21 1007.0 807.9
06 10.06 Ю 4 50 км {дождь} 8/6 1000 м
[Cu med, cong Ci fib]
+21.2 +4.3 33 +21 +26 комфорт 1000.5 806.4
09 10.06 ЮЗ 6 50 км 8/5 1000 м
[Cu med, cong Ci fib]
+24.4 0.0 20 +23 +25 комфорт 996.2 804.8
12 10.06 ЮВ 7
{16}
50 км 9/8 600 м
[Cb cap Ac lent Ci fib]
+18.6 +2.4 34 +18 +18 1001.9 806.0 +25.0 0.0
15 10.06 СЗ 3 50 км 3/0
[Ci]
+13.7 +4.3 53 +13 +13 1007.4 807.4
18 10.06 СВ 2 50 км ясно +10.1 +4.5 68 +9 +9 1011.0 808.0
21 10.06 С 3 50 км 1/1 600 м
[Sc]
+10.5 +3.8 63 +9 +9 1011.2 808.5
00 11.06 СВ 4 50 км 1/0
[Ci fib]
+14.5 +3.3 47 +13 +16 1009.2 809.4 +9.9
03 11.06 ЮЗ 2 50 км 8/1 1000 м
[Cu hum Cs]
+22.5 +0.9 24 +22 +33 комфорт 1003.3 809.4
06 11.06 ЮЗ 6 50 км 9/8 1000 м
[Cu med, cong Ci fib]
+24.1 -3.3 16 +22 +24 комфорт 1001.9 809.3
09 11.06 З 6 50 км 8/6 1000 м
[Cu med, cong Ci fib]
+25.3 -7.3 11 +23 +24 комфорт 999.9 808.3
12 11.06 СЗ 8
{12}
50 км 4/3 1000 м
[Cu hum Ci]
+21.5 +1.2 26 +21 +21 комфорт 1003.1 808.7 +26.3
15 11.06 СЗ 6 50 км 3/0 2000 м
[Ac lent Ci]
+16.7 +1.9 37 +16 +16 1008.9 810.5
18 11.06 З 4 50 км 3/0
[Ci fib]
+14.8 +2.0 42 +14 +14 1012.5 812.2
21 11.06 СВ 3 н/о 4/0 2000 м
[Ac lent Ci fib]
+13.9 +1.2 42 +13 +13 1014.0 812.8
00 12.06 В 2 50 км 4/1 600 м
[Sc Ac cast Ci fib]
+16.2 +0.3 34 +16 +19 1013.3 813.8 +13.2
03 12.06 Ю 5 50 км 6/3 1000 м
[Cu med, cong Ci fib]
+19.8 -0.2 26 +20 +25 1011.0 814.1
06 12.06 ЮЗ 6 50 км 8/6 1000 м
[Cu med, cong Ci]
+22.8 -1.3 20 +22 +24 комфорт 1007.3 812.9
09 12.06 ЮЗ 7
{11}
50 км 9/6 1000 м
[Cu med, cong Ci]
+22.8 0.0 22 +22 +23 комфорт 1005.7 811.6
12 12.06 Ю 6 50 км 9/8 1000 м
[Cu med, cong Ci]
+19.6 +2.9 33 +20 +20 1008.5 812.0 +23.8
15 12.06 Ю 2 н/о 6/6 600 м
[Sc]
+15.5 +4.5 48 +16 +16 1013.7 813.6
18 12.06 ЮВ 3 50 км 1/1 600 м
[Sc]
+13.6 +2.5 47 +13 +13 1015.3 813.7
21 12.06 В 2 50 км 3/0 2000 м
[Ac cast]
+11.0 +3.3 59 +10 +10 1017.3 813.7
00 13.06 СВ 1 50 км 8/5 600 м
[Sc Ac cast]
+16.3 +2.7 40 +17 +18 1013.3 813.8 +8.4
03 13.06 ЮВ 4 50 км 8/5 1000 м
[Sc Ac cast Ci fib]
+21.4 0.0 24 +21 +24 комфорт 1008.9 813.4
06 13.06 Ю 6 50 км 9/6 600 м
[Sc Ac trans]
+23.1 +0.8 23 +22 +24 комфорт 1005.9 811.9
09 13.06 Ю 4 50 км 9/6 600 м
[Sc Ac trans Ci fib]
+23.7 +1.4 23 +23 +24 комфорт 1003.0 810.0
12 13.06 Ю 5 50 км 10/10 600 м
[Sc]
+23.1 +0.2 22 +22 +22 комфорт 1002.6 809.2 +25.2
15 13.06 В 1 н/о в посл. час дождь 10/10 600 м
[Sc]
+21.0 +1.8 28 +22 +22 комфорт 1005.2 810.1
18 13.06 В 4 н/о {дождь} 10/10 600 м
[Sc]
+19.1 +1.1 30 +19 +19 1005.5 809.2
21 13.06 ЮВ 6 н/о 10/10 600 м
[Sc]
+18.7 -0.7 27 +18 +18 1003.8 807.6
00 14.06 З 3 50 км 10/0 600 м
[As op]
+17.3 -1.0 29 +17 +18 1005.6 808.2 +16.8 0.0
03 14.06 ЮЗ 4 50 км 10/10 600 м
[Sc]
+18.9 -1.0 26 +19 +19 1003.4 807.5
06 14.06 ЮЗ 7 50 км слаб. дождь 10/10 600 м
[Sc]
+15.6 +5.0 49 +14 +14 1006.1 807.6
09 14.06 ЮВ 2 20 км слаб. дождь 10/0 600 м
[As op]
+13.0 +8.3 73 +12 +14 1007.1 806.7
12 14.06 Ю 2 50 км слаб. дождь 10/0 600 м
[As op]
+12.4 +9.0 80 +12 +12 1006.7 806.1 +19.5 2
15 14.06 ЮВ 2 н/о {дождь} 8/8 600 м
[Sc]
+12.0 +9.0 82 +11 +11 1006.6 805.8
18 14.06 СЗ 2 н/о {дождь} 8/8 600 м
[Sc]
+10.0 +8.3 89 +8 +8 1007.5 805.2
21 14.06 СЗ 2 н/о 4/0 2000 м
[Ac lent Ci fib]
+8.0 +7.1 94 +6 +6 1008.1 804.4
00 15.06 З 8 50 км гроза без осадков 9/9 600 м
[Cb cap]
+8.8 +4.4 74 +4 +5 1008.1 804.9 +7.6 0.0
03 15.06 Ю 3 50 км гроза без осадков {ливн. осадки} 9/9 600 м
[Cb cap]
+12.9 +6.0 63 +12 +13 1004.0 804.3
06 15.06 З 6 50 км {гроза, ливн. осадки} 9/8 600 м
[Cu med, cong Ci fib]
+12.9 +5.6 61 +11 +12 1003.5 803.9
09 15.06 З 4
{13}
20 км в посл. час ливневой дождь {гроза} туман 9/9 600 м
[Cb cap]
+9.8 +7.0 83 +7 +8 1006.1 804.0
12 15.06 З 4 50 км {гроза} 9/9 600 м
[Cb cap]
+12.7 +6.1 64 +11 +11 1003.7 803.9 +14.6 11
15 15.06 СЗ 1 н/о 8/8 600 м
[Sc]
+10.6 +7.5 81 +10 +10 1006.1 804.4
18 15.06 З 1 н/о 9/6 600 м
[Sc Ci fib]
+9.8 +6.5 80 +9 +9 1005.7 803.6
21 15.06 ЮЗ 1 н/о 8/5 600 м
[Sc Ac cast]
+8.4 +5.7 83 +8 +8 1006.7 803.5
00 16.06 штиль 0 50 км 5/5 600 м
[Sc]
+11.1 +6.8 75 +11 +13 1004.4 803.4 +7.9

 

Местоположение метеостанции Баянхонгор (Монголия): широта 46.13 долгота 100.68 высота над уровнем моря 1859 м.

В архиве по умолчанию представлена погода в Баянхонгоре за последнюю неделю. Архивные данные за месяц целиком и за предыдущие месяцы, начиная с января 2011 года, Вы можете получить, выбрав интересующий диапазон дат из раскрывающегося списка и нажав кнопку "Ввод!".


*Определитесь, кто Вы:
робот инопланетянин человек

Внимание! Время в таблицах - всемирное. Для получения местного времени необходимо прибавить поправку, которая равна 8 ч.

Смотрите также архив погоды в соседних городах и на ближайших метеорологических станциях:

Погода в Галууте (Монголия) (76 км)
Погода в Цэцэрлэге (Монголия) (158 км)
Погода в Арвайхээре (Монголия) (162 км)
Погода в Хужирте (Монголия) (181 км)
Погода в Богде (Монголия) (201 км)
Погода в Баянбулаге (Монголия) (214 км)
Погода в Амарбуйантайане (Монголия) (228 км)
Погода в Тариате (Монголия) (233 км)
Погода в Эрдэни (Монголия) (251 км)
Погода в Бат Олжий Вунд (Монголия) (256 км)

Пояснения к столбцам:

Ветер - указаны скорость ветра в м/с - средняя за 10 мин, порывы в срок и между сроками (в фигурных скобках) и направление, откуда дует ветер: С - северный, СВ - северо-восточный, В - восточный, ЮВ - юго-восточный, Ю - южный, ЮЗ - юго-западный, З - западный, СЗ - северо-западный.
Видимость - горизонтальная дальность видимости в метрах или километрах. При видимости от 1 до 10 км при отсутствии осадков обычно наблюдается дымка, при ухудшении видимости до 1 км и менее - туман. В сухую погоду видимость может ухудшаться дымом, пылью или мглою.
Явления - указаны атмосферные явления, наблюдавшиеся в срок или в последний час перед сроком; фигурными скобками обозначены явления, наблюдавшиеся между сроками (за 1-3 часа до срока); квадратными скобками обозначены град или гололедные отложения с указанием их диаметра в мм.
Облачность - указаны через наклонную черту общая и нижняя облачность в баллах и высота нижней границы облаков в метрах; квадратными скобками обозначены формы облаков: Ci - перистые, Cs - перисто-слоистые, Cc - перисто-кучевые, Ac - высококучевые, As - высокослоистые, Sc - слоисто-кучевые, Ns - слоисто-дождевые, Cu - кучевые, Cb - кучево-дождевые. Подробнее классификацию облаков см. в Атласе облаков (PDF).
T - Температура воздуха - температура, измеренная на высоте 2 м над землей.
Td - Температура точки росы - температура, при понижении до которой содержащийся в воздухе водяной пар достигнет насыщения.
f - Относительная влажность воздуха - влажноcть воздуха, измеренная на высоте 2 м над землей.
Te - Эффективная температура - температура, которую ощущает одетый по сезону человек в тени. Характеристика душности погоды. При расчете учитывается влияние влажности воздуха и скорости ветра на теплоощущения человека.
Tes - Эффективная температура на солнце - температура, которую ощущает человек, с поправкой на солнечный нагрев. Характеристика знойности погоды. Зависит от высоты солнца над горизонтом, облачности и скорости ветра. Ночью, в пасмурную погоду, а также при ветре 12 м/с и более поправка равна нулю.
P - Атмосферное давление - приведенное к уровню моря атмосферное давление.
Po - Атмосферное давление - измеренное на уровне метеостанции атмосферное давление.
Tmin - Минимальная температура - минимум температуры воздуха на высоте 2 м над землей.
Tmax - Максимальная температура - максимум температуры воздуха на высоте 2 м над землей.
R - Количество осадков - Количество выпавших осадков за период времени, мм. При наведении курсора мыши на число - период времени, за который выпало указанное количество осадков.
R24 - Количество осадков - Количество выпавших осадков за 24 часа, мм.
S - Снежный покров - Высота снежного покрова, см. При наведении курсора мыши на число - состояние снежного покрова и степень покрытия местности в баллах.